Time,TemperatureF,DewpointF,PressureIn,WindDirection,WindDirectionDegrees,WindSpeedMPH,WindSpeedGustMPH,Humidity,HourlyPrecipIn,Conditions,Clouds,dailyrainin,SoftwareType,DateUTC
2013-03-11 00:00:00,34.7,32.3,30.35,SSW,205,1.0,1.0,91,0.00,,CLR,0.00,VWS V14.01,2013-03-11 04:00:00,
2013-03-11 00:05:00,34.8,32.5,30.34,South,187,1.0,5.0,91,0.00,,BKN013,0.00,VWS V14.01,2013-03-11 04:05:00,
2013-03-11 00:10:00,34.9,32.5,30.34,SE,128,1.0,3.0,91,0.00,,BKN013,0.00,VWS V14.01,2013-03-11 04:10:00,
2013-03-11 00:15:00,34.9,32.3,30.33,ESE,114,5.0,5.0,90,0.00,,BKN013,0.00,VWS V14.01,2013-03-11 04:15:00,
2013-03-11 00:20:00,35.0,32.4,30.33,SSW,193,0.0,3.0,90,0.00,,BKN013,0.00,VWS V14.01,2013-03-11 04:20:00,
2013-03-11 00:25:00,35.1,32.5,30.33,South,173,2.0,7.0,90,0.00,,BKN013,0.00,VWS V14.01,2013-03-11 04:25:00,
2013-03-11 00:30:00,35.1,32.5,30.34,SSE,150,1.0,1.0,90,0.00,,BKN013,0.00,VWS V14.01,2013-03-11 04:30:00,
2013-03-11 00:35:00,35.1,32.5,30.34,East,101,0.0,4.0,90,0.00,,BKN013,0.00,VWS V14.01,2013-03-11 04:35:00,
2013-03-11 00:40:00,35.2,32.8,30.33,ESE,115,0.0,0.0,91,0.00,,BKN013,0.00,VWS V14.01,2013-03-11 04:40:00,
2013-03-11 00:45:00,35.2,32.6,30.34,SSE,160,3.0,6.0,90,0.00,,BKN013,0.00,VWS V14.01,2013-03-11 04:45:00,
2013-03-11 00:50:00,35.2,32.6,30.33,SE,133,1.0,3.0,90,0.00,,BKN013,0.00,VWS V14.01,2013-03-11 04:50:00,
2013-03-11 00:55:00,35.2,32.6,30.33,SE,126,0.0,6.0,90,0.00,,BKN013,0.00,VWS V14.01,2013-03-11 04:55:00,
2013-03-11 01:00:00,35.3,32.9,30.33,SSE,167,1.0,5.0,91,0.00,,OVC013,0.00,VWS V14.01,2013-03-11 05:00:00,
2013-03-11 01:05:00,35.3,32.9,30.33,SSW,204,2.0,8.0,91,0.00,,OVC013,0.00,VWS V14.01,2013-03-11 05:05:00,
2013-03-11 01:10:00,35.4,33.0,30.33,WSW,250,0.0,1.0,91,0.00,,OVC013,0.00,VWS V14.01,2013-03-11 05:10:00,
2013-03-11 01:15:00,35.5,32.9,30.34,SSE,162,3.0,6.0,90,0.00,,OVC013,0.00,VWS V14.01,2013-03-11 05:15:00,
2013-03-11 01:20:00,35.6,33.0,30.33,ESE,111,0.0,1.0,90,0.00,,OVC013,0.00,VWS V14.01,2013-03-11 05:20:00,
2013-03-11 01:25:00,35.6,33.0,30.33,South,174,2.0,5.0,90,0.00,,OVC013,0.00,VWS V14.01,2013-03-11 05:25:00,
2013-03-11 01:30:00,35.6,33.0,30.33,SSE,161,0.0,2.0,90,0.00,,OVC013,0.00,VWS V14.01,2013-03-11 05:30:00,
2013-03-11 01:35:00,35.5,32.9,30.33,SSE,163,0.0,5.0,90,0.00,,OVC013,0.00,VWS V14.01,2013-03-11 05:35:00,
2013-03-11 01:40:00,35.5,32.9,30.33,SE,133,1.0,2.0,90,0.00,,OVC013,0.00,VWS V14.01,2013-03-11 05:40:00,
2013-03-11 01:45:00,35.5,32.9,30.33,South,187,3.0,5.0,90,0.00,,OVC013,0.00,VWS V14.01,2013-03-11 05:45:00,
2013-03-11 01:50:00,35.4,32.8,30.33,SSW,203,0.0,1.0,90,0.00,,OVC013,0.00,VWS V14.01,2013-03-11 05:50:00,
2013-03-11 01:55:00,35.4,33.0,30.33,SSE,166,1.0,3.0,91,0.00,,OVC013,0.00,VWS V14.01,2013-03-11 05:55:00,
2013-03-11 02:00:00,35.4,33.0,30.33,SSW,203,3.0,3.0,91,0.00,,OVC013,0.00,VWS V14.01,2013-03-11 06:00:00,
2013-03-11 02:05:00,35.4,33.0,30.33,SSW,208,0.0,3.0,91,0.00,,OVC013,0.00,VWS V14.01,2013-03-11 06:05:00,
2013-03-11 02:10:00,35.4,33.0,30.34,WSW,249,4.0,4.0,91,0.00,,OVC013,0.00,VWS V14.01,2013-03-11 06:10:00,
2013-03-11 02:15:00,35.7,33.3,30.34,WSW,249,3.0,4.0,91,0.00,,OVC013,0.00,VWS V14.01,2013-03-11 06:15:00,
2013-03-11 02:20:00,35.8,33.4,30.34,SSE,155,1.0,5.0,91,0.00,,OVC013,0.00,VWS V14.01,2013-03-11 06:20:00,
2013-03-11 02:25:00,35.9,33.3,30.33,WSW,246,4.0,7.0,90,0.00,,OVC013,0.00,VWS V14.01,2013-03-11 06:25:00,
2013-03-11 02:30:00,35.9,33.3,30.33,SW,221,0.0,1.0,90,0.00,,OVC013,0.00,VWS V14.01,2013-03-11 06:30:00,
2013-03-11 02:35:00,35.9,33.3,30.33,SSW,210,2.0,8.0,90,0.00,,OVC013,0.00,VWS V14.01,2013-03-11 06:35:00,
2013-03-11 02:40:00,35.9,33.3,30.34,SSW,199,1.0,4.0,90,0.00,,OVC013,0.00,VWS V14.01,2013-03-11 06:40:00,
2013-03-11 02:45:00,36.0,33.4,30.34,SW,233,2.0,5.0,90,0.00,,OVC013,0.00,VWS V14.01,2013-03-11 06:45:00,
2013-03-11 02:50:00,36.0,33.4,30.34,WSW,250,2.0,5.0,90,0.00,,OVC013,0.00,VWS V14.01,2013-03-11 06:50:00,
2013-03-11 02:55:00,36.0,33.4,30.34,SW,229,2.0,5.0,90,0.00,,OVC013,0.00,VWS V14.01,2013-03-11 06:55:00,
2013-03-11 03:00:00,36.1,33.5,30.34,SW,219,2.0,3.0,90,0.00,,OVC011,0.00,VWS V14.01,2013-03-11 07:00:00,
2013-03-11 03:05:00,36.1,33.5,30.34,West,266,3.0,7.0,90,0.00,,OVC011,0.00,VWS V14.01,2013-03-11 07:05:00,
2013-03-11 03:10:00,36.2,33.6,30.34,West,278,2.0,4.0,90,0.00,,OVC011,0.00,VWS V14.01,2013-03-11 07:10:00,
2013-03-11 03:15:00,36.2,33.6,30.33,SW,218,2.0,7.0,90,0.00,,OVC011,0.00,VWS V14.01,2013-03-11 07:15:00,
2013-03-11 03:20:00,36.2,33.6,30.33,WSW,255,1.0,3.0,90,0.00,,OVC011,0.00,VWS V14.01,2013-03-11 07:20:00,
2013-03-11 03:25:00,36.3,33.7,30.33,SW,224,3.0,4.0,90,0.00,,OVC011,0.00,VWS V14.01,2013-03-11 07:25:00,
2013-03-11 03:30:00,36.3,33.7,30.32,SW,225,3.0,4.0,90,0.00,,OVC011,0.00,VWS V14.01,2013-03-11 07:30:00,
2013-03-11 03:35:00,36.3,33.7,30.32,SW,224,1.0,7.0,90,0.00,,OVC011,0.00,VWS V14.01,2013-03-11 07:35:00,
2013-03-11 03:40:00,36.4,33.8,30.32,West,273,1.0,1.0,90,0.00,,OVC011,0.00,VWS V14.01,2013-03-11 07:40:00,
2013-03-11 03:45:00,36.3,33.7,30.31,West,269,0.0,5.0,90,0.00,,OVC011,0.00,VWS V14.01,2013-03-11 07:45:00,
2013-03-11 03:50:00,36.3,33.7,30.31,SSW,194,2.0,4.0,90,0.00,,OVC011,0.00,VWS V14.01,2013-03-11 07:50:00,
2013-03-11 03:55:00,36.3,33.7,30.30,SSE,161,3.0,4.0,90,0.00,,OVC011,0.00,VWS V14.01,2013-03-11 07:55:00,
2013-03-11 04:00:00,36.3,33.7,30.29,SE,141,2.0,2.0,90,0.00,,OVC011,0.00,VWS V14.01,2013-03-11 08:00:00,
2013-03-11 04:05:00,36.3,33.7,30.29,SE,138,5.0,6.0,90,0.00,,OVC011,0.00,VWS V14.01,2013-03-11 08:05:00,
2013-03-11 04:10:00,36.3,33.7,30.30,South,172,1.0,4.0,90,0.00,,OVC011,0.00,VWS V14.01,2013-03-11 08:10:00,
2013-03-11 04:15:00,36.3,33.7,30.29,South,191,2.0,4.0,90,0.00,,OVC011,0.00,VWS V14.01,2013-03-11 08:15:00,
2013-03-11 04:20:00,36.3,33.7,30.29,SSW,211,2.0,3.0,90,0.00,,OVC011,0.00,VWS V14.01,2013-03-11 08:20:00,
2013-03-11 04:25:00,36.4,33.8,30.29,South,172,2.0,4.0,90,0.00,,OVC011,0.00,VWS V14.01,2013-03-11 08:25:00,
2013-03-11 04:30:00,36.4,33.8,30.29,SSW,200,0.0,5.0,90,0.00,,OVC011,0.00,VWS V14.01,2013-03-11 08:30:00,
2013-03-11 04:35:00,36.4,33.8,30.29,SW,232,2.0,6.0,90,0.00,,OVC011,0.00,VWS V14.01,2013-03-11 08:35:00,
2013-03-11 04:40:00,36.4,33.8,30.29,South,183,4.0,6.0,90,0.00,,OVC011,0.00,VWS V14.01,2013-03-11 08:40:00,
2013-03-11 04:45:00,36.4,33.8,30.30,West,260,6.0,7.0,90,0.00,,OVC011,0.00,VWS V14.01,2013-03-11 08:45:00,
2013-03-11 04:50:00,36.4,33.8,30.30,WSW,243,3.0,3.0,90,0.00,,OVC011,0.00,VWS V14.01,2013-03-11 08:50:00,
2013-03-11 04:55:00,36.4,33.8,30.30,WSW,246,1.0,9.0,90,0.00,,OVC011,0.00,VWS V14.01,2013-03-11 08:55:00,
2013-03-11 05:00:00,36.4,33.8,30.29,South,172,4.0,5.0,90,0.00,,OVC011,0.00,VWS V14.01,2013-03-11 09:00:00,
2013-03-11 05:05:00,36.4,33.8,30.30,SSW,195,3.0,9.0,90,0.00,,OVC011,0.00,VWS V14.01,2013-03-11 09:05:00,
2013-03-11 05:10:00,36.4,33.8,30.29,South,176,1.0,4.0,90,0.00,,OVC011,0.00,VWS V14.01,2013-03-11 09:10:00,
2013-03-11 05:15:00,36.4,33.8,30.30,WSW,245,2.0,6.0,90,0.00,,OVC011,0.00,VWS V14.01,2013-03-11 09:15:00,
2013-03-11 05:20:00,36.3,33.7,30.30,SW,232,3.0,4.0,90,0.00,,OVC011,0.00,VWS V14.01,2013-03-11 09:20:00,
2013-03-11 05:25:00,36.3,33.7,30.30,West,276,1.0,5.0,90,0.00,,OVC011,0.00,VWS V14.01,2013-03-11 09:25:00,
2013-03-11 05:30:00,36.3,33.7,30.30,West,271,1.0,5.0,90,0.00,,OVC011,0.00,VWS V14.01,2013-03-11 09:30:00,
2013-03-11 05:35:00,36.3,33.7,30.30,SSW,210,3.0,6.0,90,0.00,,OVC011,0.00,VWS V14.01,2013-03-11 09:35:00,
2013-03-11 05:40:00,36.3,33.7,30.29,SSE,159,3.0,4.0,90,0.00,,OVC011,0.00,VWS V14.01,2013-03-11 09:40:00,
2013-03-11 05:45:00,36.3,33.7,30.30,SW,218,4.0,6.0,90,0.00,,OVC011,0.00,VWS V14.01,2013-03-11 09:45:00,
2013-03-11 05:50:00,36.3,33.7,30.30,West,261,0.0,1.0,90,0.00,,OVC011,0.00,VWS V14.01,2013-03-11 09:50:00,
2013-03-11 05:55:00,36.3,33.7,30.30,SSW,211,0.0,4.0,90,0.00,,OVC011,0.00,VWS V14.01,2013-03-11 09:55:00,
2013-03-11 06:00:00,36.3,33.7,30.30,SSW,193,3.0,3.0,90,0.00,,OVC011,0.00,VWS V14.01,2013-03-11 10:00:00,
2013-03-11 06:05:00,36.3,33.7,30.30,SW,214,3.0,5.0,90,0.00,,OVC011,0.00,VWS V14.01,2013-03-11 10:05:00,
2013-03-11 06:10:00,36.3,33.7,30.30,SW,225,1.0,1.0,90,0.00,,OVC011,0.00,VWS V14.01,2013-03-11 10:10:00,
2013-03-11 06:15:00,36.4,33.8,30.30,WSW,242,1.0,5.0,90,0.00,,OVC011,0.00,VWS V14.01,2013-03-11 10:15:00,
2013-03-11 06:20:00,36.4,33.8,30.30,South,188,3.0,4.0,90,0.00,,OVC011,0.00,VWS V14.01,2013-03-11 10:20:00,
2013-03-11 06:25:00,36.3,33.7,30.30,SW,222,2.0,4.0,90,0.00,,OVC011,0.00,VWS V14.01,2013-03-11 10:25:00,
2013-03-11 06:30:00,36.4,33.8,30.30,WSW,239,2.0,2.0,90,0.00,,OVC011,0.00,VWS V14.01,2013-03-11 10:30:00,
2013-03-11 06:35:00,36.3,33.7,30.29,SSE,147,0.0,4.0,90,0.00,,OVC011,0.00,VWS V14.01,2013-03-11 10:35:00,
2013-03-11 06:40:00,36.3,33.7,30.30,SW,226,0.0,1.0,90,0.00,,OVC011,0.00,VWS V14.01,2013-03-11 10:40:00,
2013-03-11 06:45:00,36.4,34.0,30.30,WSW,239,0.0,3.0,91,0.00,,OVC011,0.00,VWS V14.01,2013-03-11 10:45:00,
2013-03-11 06:50:00,36.4,34.0,30.30,SSW,201,1.0,1.0,91,0.00,,OVC011,0.00,VWS V14.01,2013-03-11 10:50:00,
2013-03-11 06:55:00,36.4,34.0,30.31,SW,225,2.0,4.0,91,0.00,,OVC011,0.00,VWS V14.01,2013-03-11 10:55:00,
2013-03-11 07:00:00,36.4,34.0,30.31,SSE,158,0.0,3.0,91,0.00,,OVC011,0.00,VWS V14.01,2013-03-11 11:00:00,
2013-03-11 07:05:00,36.5,34.1,30.31,SW,225,1.0,5.0,91,0.00,,OVC009,0.00,VWS V14.01,2013-03-11 11:05:00,
2013-03-11 07:10:00,36.5,34.1,30.31,South,187,1.0,3.0,91,0.00,,OVC009,0.00,VWS V14.01,2013-03-11 11:10:00,
2013-03-11 07:15:00,36.5,34.1,30.31,SW,233,2.0,3.0,91,0.00,,OVC009,0.00,VWS V14.01,2013-03-11 11:15:00,
2013-03-11 07:20:00,36.6,34.2,30.31,SW,219,0.0,3.0,91,0.00,,OVC009,0.00,VWS V14.01,2013-03-11 11:20:00,
2013-03-11 07:25:00,36.6,34.2,30.31,SW,229,0.0,4.0,91,0.00,,OVC009,0.00,VWS V14.01,2013-03-11 11:25:00,
2013-03-11 07:30:00,36.7,34.3,30.31,SE,146,1.0,1.0,91,0.00,,OVC009,0.00,VWS V14.01,2013-03-11 11:30:00,
2013-03-11 07:35:00,36.8,34.2,30.31,SE,135,1.0,6.0,90,0.00,,OVC009,0.00,VWS V14.01,2013-03-11 11:35:00,
2013-03-11 07:40:00,36.9,34.2,30.31,SSE,168,3.0,4.0,90,0.00,,OVC009,0.00,VWS V14.01,2013-03-11 11:40:00,
2013-03-11 07:45:00,36.9,34.2,30.31,SSE,165,1.0,6.0,90,0.00,,OVC009,0.00,VWS V14.01,2013-03-11 11:45:00,
2013-03-11 07:50:00,37.0,34.3,30.30,South,172,1.0,2.0,90,0.00,,OVC009,0.00,VWS V14.01,2013-03-11 11:50:00,
2013-03-11 07:55:00,37.1,34.4,30.30,SE,133,1.0,4.0,90,0.00,,OVC009,0.00,VWS V14.01,2013-03-11 11:55:00,
2013-03-11 08:00:00,37.1,34.4,30.30,SSE,163,3.0,5.0,90,0.00,,OVC009,0.00,VWS V14.01,2013-03-11 12:00:00,
2013-03-11 08:05:00,37.2,34.5,30.30,SW,229,3.0,5.0,90,0.00,,OVC009,0.00,VWS V14.01,2013-03-11 12:05:00,
2013-03-11 08:10:00,37.3,34.6,30.30,West,269,1.0,2.0,90,0.00,,OVC009,0.00,VWS V14.01,2013-03-11 12:10:00,
2013-03-11 08:15:00,37.3,34.6,30.30,SSE,159,4.0,5.0,90,0.00,,OVC009,0.00,VWS V14.01,2013-03-11 12:15:00,
2013-03-11 08:20:00,37.3,34.6,30.30,South,181,3.0,4.0,90,0.00,,OVC009,0.00,VWS V14.01,2013-03-11 12:20:00,
2013-03-11 08:25:00,37.3,34.6,30.30,ESE,116,2.0,5.0,90,0.00,,OVC009,0.00,VWS V14.01,2013-03-11 12:25:00,
2013-03-11 08:30:00,37.3,34.6,30.30,SSE,159,0.0,1.0,90,0.00,,OVC009,0.00,VWS V14.01,2013-03-11 12:30:00,
2013-03-11 08:35:00,37.4,34.7,30.30,SE,139,0.0,3.0,90,0.00,,OVC009,0.00,VWS V14.01,2013-03-11 12:35:00,
2013-03-11 08:40:00,37.5,34.8,30.30,South,184,0.0,3.0,90,0.00,,OVC009,0.00,VWS V14.01,2013-03-11 12:40:00,
2013-03-11 08:45:00,37.7,35.0,30.30,SSE,166,5.0,6.0,90,0.00,,OVC009,0.00,VWS V14.01,2013-03-11 12:45:00,
2013-03-11 08:50:00,37.7,35.0,30.30,South,184,2.0,3.0,90,0.00,,OVC009,0.00,VWS V14.01,2013-03-11 12:50:00,
2013-03-11 08:55:00,37.7,35.0,30.30,South,176,6.0,8.0,90,0.00,,OVC009,0.00,VWS V14.01,2013-03-11 12:55:00,
2013-03-11 09:00:00,37.8,35.1,30.30,SSE,167,5.0,7.0,90,0.00,,OVC009,0.00,VWS V14.01,2013-03-11 13:00:00,
2013-03-11 09:05:00,37.8,35.1,30.29,South,169,5.0,7.0,90,0.00,,OVC009,0.00,VWS V14.01,2013-03-11 13:05:00,
2013-03-11 09:10:00,37.8,34.9,30.29,SSE,156,2.0,3.0,89,0.00,,OVC009,0.00,VWS V14.01,2013-03-11 13:10:00,
2013-03-11 09:15:00,37.9,35.0,30.29,SSW,201,5.0,7.0,89,0.00,,OVC009,0.00,VWS V14.01,2013-03-11 13:15:00,
2013-03-11 09:20:00,38.1,35.2,30.29,SE,134,4.0,4.0,89,0.00,,OVC009,0.00,VWS V14.01,2013-03-11 13:20:00,
2013-03-11 09:25:00,38.3,35.1,30.29,SSE,159,3.0,8.0,88,0.00,,OVC009,0.00,VWS V14.01,2013-03-11 13:25:00,
2013-03-11 09:30:00,38.4,35.2,30.29,SSW,203,3.0,5.0,88,0.00,,OVC009,0.00,VWS V14.01,2013-03-11 13:30:00,
2013-03-11 09:35:00,38.4,35.2,30.29,SW,214,5.0,9.0,88,0.00,,OVC009,0.00,VWS V14.01,2013-03-11 13:35:00,
2013-03-11 09:40:00,38.5,35.5,30.29,SW,219,4.0,5.0,89,0.00,,OVC009,0.00,VWS V14.01,2013-03-11 13:40:00,
2013-03-11 09:45:00,38.5,35.3,30.29,SW,224,3.0,7.0,88,0.00,,OVC009,0.00,VWS V14.01,2013-03-11 13:45:00,
2013-03-11 09:50:00,38.8,35.8,30.29,SE,139,1.0,1.0,89,0.00,,OVC009,0.00,VWS V14.01,2013-03-11 13:50:00,
2013-03-11 09:55:00,39.1,35.8,30.29,SSE,153,2.0,5.0,88,0.00,,OVC009,0.00,VWS V14.01,2013-03-11 13:55:00,
2013-03-11 10:00:00,39.1,35.8,30.29,SSE,147,3.0,5.0,88,0.00,,OVC009,0.00,VWS V14.01,2013-03-11 14:00:00,
2013-03-11 10:05:00,39.1,35.8,30.29,East,83,1.0,5.0,88,0.00,,OVC009,0.00,VWS V14.01,2013-03-11 14:05:00,
2013-03-11 10:10:00,39.1,35.6,30.30,South,183,6.0,6.0,87,0.00,,OVC009,0.00,VWS V14.01,2013-03-11 14:10:00,
2013-03-11 10:15:00,39.1,35.8,30.30,WSW,255,1.0,7.0,88,0.00,,OVC009,0.00,VWS V14.01,2013-03-11 14:15:00,
2013-03-11 10:20:00,39.3,36.0,30.30,SSW,210,3.0,3.0,88,0.00,,OVC009,0.00,VWS V14.01,2013-03-11 14:20:00,
2013-03-11 10:25:00,39.5,36.0,30.30,WNW,298,1.0,5.0,87,0.00,,OVC009,0.00,VWS V14.01,2013-03-11 14:25:00,
2013-03-11 10:30:00,39.3,35.8,30.30,SW,235,5.0,5.0,87,0.00,,OVC009,0.00,VWS V14.01,2013-03-11 14:30:00,
2013-03-11 10:35:00,39.5,36.2,30.31,East,101,3.0,7.0,88,0.00,,OVC011,0.00,VWS V14.01,2013-03-11 14:35:00,
2013-03-11 10:40:00,39.9,36.3,30.31,SE,136,4.0,5.0,87,0.00,,OVC011,0.00,VWS V14.01,2013-03-11 14:40:00,
2013-03-11 10:45:00,39.9,36.3,30.31,SSW,203,5.0,9.0,87,0.00,,OVC011,0.00,VWS V14.01,2013-03-11 14:45:00,
2013-03-11 10:50:00,40.2,36.3,30.31,South,188,4.0,4.0,86,0.00,,OVC011,0.00,VWS V14.01,2013-03-11 14:50:00,
2013-03-11 10:55:00,40.3,36.5,30.30,SE,135,0.0,8.0,86,0.00,,OVC011,0.00,VWS V14.01,2013-03-11 14:55:00,
2013-03-11 11:00:00,40.7,36.8,30.30,South,177,3.0,6.0,86,0.00,,OVC011,0.00,VWS V14.01,2013-03-11 15:00:00,
2013-03-11 11:05:00,40.8,36.9,30.30,South,174,8.0,9.0,86,0.00,,OVC011,0.00,VWS V14.01,2013-03-11 15:05:00,
2013-03-11 11:10:00,41.1,37.2,30.31,SSW,200,4.0,4.0,86,0.00,,OVC011,0.00,VWS V14.01,2013-03-11 15:10:00,
2013-03-11 11:15:00,41.2,37.3,30.30,SE,146,5.0,9.0,86,0.00,,OVC011,0.00,VWS V14.01,2013-03-11 15:15:00,
2013-03-11 11:20:00,41.4,37.5,30.30,South,169,5.0,6.0,86,0.00,,OVC011,0.00,VWS V14.01,2013-03-11 15:20:00,
2013-03-11 11:25:00,41.6,37.7,30.31,SW,222,7.0,8.0,86,0.00,,OVC011,0.00,VWS V14.01,2013-03-11 15:25:00,
2013-03-11 11:30:00,41.7,37.5,30.31,SSW,208,0.0,2.0,85,0.00,,OVC011,0.00,VWS V14.01,2013-03-11 15:30:00,
2013-03-11 11:35:00,41.8,37.6,30.31,South,187,4.0,8.0,85,0.00,,OVC011,0.00,VWS V14.01,2013-03-11 15:35:00,
2013-03-11 11:40:00,41.6,37.4,30.31,SSW,212,4.0,6.0,85,0.00,,OVC011,0.00,VWS V14.01,2013-03-11 15:40:00,
2013-03-11 11:45:00,41.6,37.7,30.30,South,186,2.0,10.0,86,0.00,,OVC011,0.00,VWS V14.01,2013-03-11 15:45:00,
2013-03-11 11:50:00,41.7,37.8,30.30,West,267,0.0,1.0,86,0.00,,OVC011,0.00,VWS V14.01,2013-03-11 15:50:00,
2013-03-11 11:55:00,41.9,37.7,30.30,South,183,7.0,9.0,85,0.00,,OVC011,0.00,VWS V14.01,2013-03-11 15:55:00,
2013-03-11 12:00:00,41.8,37.6,30.30,South,176,5.0,5.0,85,0.00,,OVC011,0.00,VWS V14.01,2013-03-11 16:00:00,
2013-03-11 12:05:00,41.8,37.6,30.31,SSE,160,8.0,10.0,85,0.00,,OVC013,0.00,VWS V14.01,2013-03-11 16:05:00,
2013-03-11 12:10:00,41.9,37.7,30.30,SE,146,3.0,4.0,85,0.00,,OVC013,0.00,VWS V14.01,2013-03-11 16:10:00,
2013-03-11 12:15:00,42.0,37.8,30.30,SSW,201,3.0,11.0,85,0.00,,OVC013,0.00,VWS V14.01,2013-03-11 16:15:00,
2013-03-11 12:20:00,42.3,38.1,30.29,SSW,207,6.0,7.0,85,0.00,,OVC013,0.00,VWS V14.01,2013-03-11 16:20:00,
2013-03-11 12:25:00,42.4,38.2,30.29,South,177,5.0,9.0,85,0.00,,OVC013,0.00,VWS V14.01,2013-03-11 16:25:00,
2013-03-11 12:30:00,42.2,38.0,30.29,SE,132,4.0,7.0,85,0.00,,OVC013,0.00,VWS V14.01,2013-03-11 16:30:00,
2013-03-11 12:35:00,42.4,38.2,30.29,SW,218,4.0,9.0,85,0.00,,OVC013,0.00,VWS V14.01,2013-03-11 16:35:00,
2013-03-11 12:40:00,42.2,38.0,30.29,SE,124,4.0,7.0,85,0.00,,OVC013,0.00,VWS V14.01,2013-03-11 16:40:00,
2013-03-11 12:45:00,42.2,38.3,30.29,South,179,9.0,10.0,86,0.00,,OVC013,0.00,VWS V14.01,2013-03-11 16:45:00,
2013-03-11 12:50:00,42.3,38.4,30.29,WSW,239,5.0,8.0,86,0.00,,OVC013,0.00,VWS V14.01,2013-03-11 16:50:00,
2013-03-11 12:55:00,42.3,38.4,30.29,SE,146,9.0,11.0,86,0.00,,OVC013,0.00,VWS V14.01,2013-03-11 16:55:00,
2013-03-11 13:00:00,42.2,38.6,30.29,South,179,2.0,5.0,87,0.00,,OVC013,0.00,VWS V14.01,2013-03-11 17:00:00,
2013-03-11 13:05:00,42.6,38.7,30.29,SSW,194,8.0,11.0,86,0.00,,OVC015,0.00,VWS V14.01,2013-03-11 17:05:00,
2013-03-11 13:10:00,42.9,39.0,30.29,SSW,200,1.0,5.0,86,0.00,,OVC015,0.00,VWS V14.01,2013-03-11 17:10:00,
2013-03-11 13:15:00,43.1,39.2,30.28,SW,218,6.0,9.0,86,0.00,,OVC015,0.00,VWS V14.01,2013-03-11 17:15:00,
2013-03-11 13:20:00,43.3,39.1,30.28,SE,141,2.0,3.0,85,0.00,,OVC015,0.00,VWS V14.01,2013-03-11 17:20:00,
2013-03-11 13:25:00,43.7,39.5,30.28,SSW,208,3.0,8.0,85,0.00,,OVC015,0.00,VWS V14.01,2013-03-11 17:25:00,
2013-03-11 13:30:00,43.7,39.5,30.28,SSW,201,4.0,5.0,85,0.00,,OVC015,0.00,VWS V14.01,2013-03-11 17:30:00,
2013-03-11 13:35:00,43.7,39.5,30.28,SSE,156,9.0,10.0,85,0.00,,OVC015,0.00,VWS V14.01,2013-03-11 17:35:00,
2013-03-11 13:40:00,43.7,39.5,30.27,SSE,158,3.0,4.0,85,0.00,,OVC015,0.00,VWS V14.01,2013-03-11 17:40:00,
2013-03-11 13:45:00,44.1,39.9,30.28,SW,235,2.0,9.0,85,0.00,,OVC015,0.00,VWS V14.01,2013-03-11 17:45:00,
2013-03-11 13:50:00,44.4,39.9,30.28,SSE,152,8.0,12.0,84,0.00,,OVC015,0.00,VWS V14.01,2013-03-11 17:50:00,
2013-03-11 13:55:00,44.5,40.0,30.27,SSW,207,4.0,12.0,84,0.00,,OVC015,0.00,VWS V14.01,2013-03-11 17:55:00,
2013-03-11 14:00:00,44.4,39.9,30.27,SW,224,5.0,7.0,84,0.00,,OVC015,0.00,VWS V14.01,2013-03-11 18:00:00,
2013-03-11 14:05:00,44.5,40.0,30.27,South,174,6.0,12.0,84,0.00,,OVC015,0.00,VWS V14.01,2013-03-11 18:05:00,
2013-03-11 14:10:00,44.8,40.3,30.26,SW,218,4.0,5.0,84,0.00,,OVC015,0.00,VWS V14.01,2013-03-11 18:10:00,
2013-03-11 14:15:00,45.3,40.5,30.26,SSE,167,8.0,12.0,83,0.00,,OVC015,0.00,VWS V14.01,2013-03-11 18:15:00,
2013-03-11 14:20:00,45.5,40.7,30.26,ESE,103,4.0,6.0,83,0.00,,OVC015,0.00,VWS V14.01,2013-03-11 18:20:00,
2013-03-11 14:25:00,45.2,40.0,30.26,SE,145,4.0,13.0,82,0.00,,OVC015,0.00,VWS V14.01,2013-03-11 18:25:00,
2013-03-11 14:30:00,44.8,40.0,30.26,SSW,198,5.0,7.0,83,0.00,,OVC015,0.00,VWS V14.01,2013-03-11 18:30:00,
2013-03-11 14:35:00,44.7,39.9,30.26,SSE,160,8.0,13.0,83,0.00,,OVC015,0.00,VWS V14.01,2013-03-11 18:35:00,
2013-03-11 14:40:00,44.0,39.8,30.25,South,179,5.0,5.0,85,0.00,,OVC015,0.00,VWS V14.01,2013-03-11 18:40:00,
2013-03-11 14:45:00,43.9,39.7,30.25,SE,139,5.0,12.0,85,0.00,,OVC015,0.00,VWS V14.01,2013-03-11 18:45:00,
2013-03-11 14:50:00,44.0,39.8,30.25,SSW,195,6.0,8.0,85,0.00,,OVC015,0.00,VWS V14.01,2013-03-11 18:50:00,
2013-03-11 14:55:00,44.4,40.2,30.25,SW,214,3.0,9.0,85,0.00,,OVC015,0.00,VWS V14.01,2013-03-11 18:55:00,
2013-03-11 15:00:00,44.1,39.9,30.25,SE,134,6.0,12.0,85,0.00,,OVC015,0.00,VWS V14.01,2013-03-11 19:00:00,
2013-03-11 15:05:00,44.0,40.1,30.25,SSW,195,5.0,12.0,86,0.00,,BKN019,0.00,VWS V14.01,2013-03-11 19:05:00,
2013-03-11 15:10:00,44.2,40.0,30.25,South,190,11.0,11.0,85,0.00,,BKN019,0.00,VWS V14.01,2013-03-11 19:10:00,
2013-03-11 15:15:00,44.6,40.4,30.25,WSW,249,7.0,11.0,85,0.00,,BKN019,0.00,VWS V14.01,2013-03-11 19:15:00,
2013-03-11 15:20:00,44.9,40.4,30.25,East,101,5.0,8.0,84,0.00,,BKN019,0.00,VWS V14.01,2013-03-11 19:20:00,
2013-03-11 15:25:00,45.1,40.2,30.25,SSE,166,5.0,14.0,83,0.00,,BKN019,0.00,VWS V14.01,2013-03-11 19:25:00,
2013-03-11 15:30:00,45.3,40.8,30.25,SSW,212,9.0,11.0,84,0.00,,BKN019,0.00,VWS V14.01,2013-03-11 19:30:00,
2013-03-11 15:35:00,45.3,40.5,30.24,SSE,148,10.0,15.0,83,0.00,,BKN019,0.00,VWS V14.01,2013-03-11 19:35:00,
2013-03-11 15:40:00,45.3,40.5,30.24,SSE,165,4.0,10.0,83,0.00,,BKN019,0.00,VWS V14.01,2013-03-11 19:40:00,
2013-03-11 15:45:00,45.5,40.7,30.24,SE,140,1.0,12.0,83,0.00,,BKN019,0.00,VWS V14.01,2013-03-11 19:45:00,
2013-03-11 15:50:00,45.5,40.7,30.24,SSE,162,6.0,6.0,83,0.00,,BKN019,0.00,VWS V14.01,2013-03-11 19:50:00,
2013-03-11 15:55:00,45.5,40.7,30.24,South,183,8.0,10.0,83,0.00,,BKN019,0.00,VWS V14.01,2013-03-11 19:55:00,
2013-03-11 16:00:00,45.5,41.0,30.24,SW,225,1.0,2.0,84,0.00,,BKN019,0.00,VWS V14.01,2013-03-11 20:00:00,
2013-03-11 16:05:00,45.1,40.6,30.24,SE,138,7.0,13.0,84,0.00,,BKN019,0.00,VWS V14.01,2013-03-11 20:05:00,
2013-03-11 16:10:00,44.8,40.3,30.24,SE,136,2.0,3.0,84,0.00,,BKN019,0.00,VWS V14.01,2013-03-11 20:10:00,
2013-03-11 16:15:00,44.8,40.6,30.24,ESE,104,1.0,13.0,85,0.00,,BKN019,0.00,VWS V14.01,2013-03-11 20:15:00,
2013-03-11 16:20:00,44.5,40.0,30.24,SSE,160,6.0,7.0,84,0.00,,BKN019,0.00,VWS V14.01,2013-03-11 20:20:00,
2013-03-11 16:25:00,44.1,39.9,30.24,SSE,155,6.0,9.0,85,0.00,,BKN019,0.00,VWS V14.01,2013-03-11 20:25:00,
2013-03-11 16:30:00,43.7,39.8,30.24,SW,218,3.0,5.0,86,0.00,,BKN019,0.00,VWS V14.01,2013-03-11 20:30:00,
2013-03-11 16:35:00,43.6,40.0,30.24,South,181,4.0,7.0,87,0.00,,BKN016,0.00,VWS V14.01,2013-03-11 20:35:00,
2013-03-11 16:40:00,43.4,39.8,30.24,South,176,3.0,4.0,87,0.00,,BKN016,0.00,VWS V14.01,2013-03-11 20:40:00,
2013-03-11 16:45:00,43.2,39.6,30.24,WNW,286,1.0,9.0,87,0.00,,BKN016,0.00,VWS V14.01,2013-03-11 20:45:00,
2013-03-11 16:50:00,43.1,39.8,30.24,SSW,192,5.0,7.0,88,0.00,,BKN016,0.00,VWS V14.01,2013-03-11 20:50:00,
2013-03-11 16:55:00,42.9,39.6,30.23,SE,140,5.0,9.0,88,0.00,,BKN016,0.00,VWS V14.01,2013-03-11 20:55:00,
2013-03-11 17:00:00,42.9,39.6,30.23,SW,233,3.0,6.0,88,0.00,,BKN016,0.00,VWS V14.01,2013-03-11 21:00:00,
2013-03-11 17:05:00,42.8,39.8,30.23,South,186,6.0,8.0,89,0.00,,OVC016,0.00,VWS V14.01,2013-03-11 21:05:00,
2013-03-11 17:10:00,42.8,39.8,30.23,SW,222,2.0,3.0,89,0.00,,OVC016,0.00,VWS V14.01,2013-03-11 21:10:00,
2013-03-11 17:15:00,42.8,39.8,30.23,South,183,3.0,6.0,89,0.00,,OVC016,0.00,VWS V14.01,2013-03-11 21:15:00,
2013-03-11 17:20:00,42.9,39.9,30.23,SW,235,1.0,4.0,89,0.00,,OVC016,0.00,VWS V14.01,2013-03-11 21:20:00,
2013-03-11 17:25:00,42.9,39.9,30.23,SW,235,4.0,8.0,89,0.00,,OVC016,0.00,VWS V14.01,2013-03-11 21:25:00,
2013-03-11 17:30:00,42.9,39.9,30.23,SSE,155,0.0,1.0,89,0.00,,OVC016,0.00,VWS V14.01,2013-03-11 21:30:00,
2013-03-11 17:35:00,42.9,39.9,30.23,SE,124,3.0,6.0,89,0.00,,OVC016,0.00,VWS V14.01,2013-03-11 21:35:00,
2013-03-11 17:40:00,42.7,39.7,30.23,SW,226,4.0,6.0,89,0.00,,OVC016,0.00,VWS V14.01,2013-03-11 21:40:00,
2013-03-11 17:45:00,42.5,39.5,30.24,SSW,201,4.0,7.0,89,0.00,,OVC016,0.00,VWS V14.01,2013-03-11 21:45:00,
2013-03-11 17:50:00,42.5,39.8,30.23,SSW,201,1.0,5.0,90,0.00,,OVC016,0.00,VWS V14.01,2013-03-11 21:50:00,
2013-03-11 17:55:00,42.4,39.7,30.24,SE,146,2.0,7.0,90,0.00,,OVC016,0.00,VWS V14.01,2013-03-11 21:55:00,
2013-03-11 18:00:00,42.4,39.7,30.23,SE,135,2.0,2.0,90,0.00,,OVC016,0.00,VWS V14.01,2013-03-11 22:00:00,
2013-03-11 18:05:00,42.4,39.7,30.23,ESE,118,3.0,6.0,90,0.00,,OVC020,0.00,VWS V14.01,2013-03-11 22:05:00,
2013-03-11 18:10:00,42.3,39.6,30.23,ESE,122,4.0,8.0,90,0.00,,OVC020,0.00,VWS V14.01,2013-03-11 22:10:00,
2013-03-11 18:15:00,42.3,39.6,30.23,South,179,4.0,8.0,90,0.00,,OVC020,0.00,VWS V14.01,2013-03-11 22:15:00,
2013-03-11 18:20:00,42.3,39.6,30.22,ESE,112,1.0,1.0,90,0.00,,OVC020,0.00,VWS V14.01,2013-03-11 22:20:00,
2013-03-11 18:25:00,42.2,39.5,30.22,SE,124,5.0,7.0,90,0.00,,OVC020,0.00,VWS V14.01,2013-03-11 22:25:00,
2013-03-11 18:30:00,42.1,39.4,30.22,ESE,118,0.0,1.0,90,0.00,,OVC020,0.00,VWS V14.01,2013-03-11 22:30:00,
2013-03-11 18:35:00,41.9,39.5,30.22,SE,125,0.0,7.0,91,0.00,,OVC020,0.00,VWS V14.01,2013-03-11 22:35:00,
2013-03-11 18:40:00,41.8,39.4,30.23,SSE,149,4.0,4.0,91,0.00,,OVC020,0.00,VWS V14.01,2013-03-11 22:40:00,
2013-03-11 18:45:00,41.7,39.3,30.23,South,170,2.0,8.0,91,0.00,,OVC020,0.00,VWS V14.01,2013-03-11 22:45:00,
2013-03-11 18:50:00,41.7,39.3,30.22,SSE,162,2.0,4.0,91,0.00,,OVC020,0.00,VWS V14.01,2013-03-11 22:50:00,
2013-03-11 18:55:00,41.6,39.2,30.23,SSW,207,4.0,4.0,91,0.00,,OVC020,0.00,VWS V14.01,2013-03-11 22:55:00,
2013-03-11 19:00:00,41.6,39.2,30.23,South,191,2.0,2.0,91,0.00,,OVC020,0.00,VWS V14.01,2013-03-11 23:00:00,
2013-03-11 19:05:00,41.5,39.1,30.22,SW,218,1.0,4.0,91,0.00,,OVC020,0.00,VWS V14.01,2013-03-11 23:05:00,
2013-03-11 19:10:00,41.5,39.3,30.22,ESE,106,0.0,1.0,92,0.00,,OVC020,0.00,VWS V14.01,2013-03-11 23:10:00,
2013-03-11 19:15:00,41.5,39.3,30.22,SE,146,5.0,6.0,92,0.00,,OVC020,0.00,VWS V14.01,2013-03-11 23:15:00,
2013-03-11 19:20:00,41.4,39.2,30.22,SE,138,0.0,0.0,92,0.00,,OVC020,0.00,VWS V14.01,2013-03-11 23:20:00,
2013-03-11 19:25:00,41.3,39.2,30.22,SW,235,3.0,11.0,92,0.00,,OVC020,0.00,VWS V14.01,2013-03-11 23:25:00,
2013-03-11 19:30:00,41.4,39.2,30.22,SSE,150,3.0,4.0,92,0.00,,OVC020,0.00,VWS V14.01,2013-03-11 23:30:00,
2013-03-11 19:35:00,41.4,39.2,30.22,ESE,115,4.0,8.0,92,0.00,,OVC020,0.00,VWS V14.01,2013-03-11 23:35:00,
2013-03-11 19:40:00,41.4,39.2,30.22,SW,235,1.0,2.0,92,0.00,,OVC020,0.00,VWS V14.01,2013-03-11 23:40:00,
2013-03-11 19:45:00,41.4,39.2,30.22,South,191,4.0,7.0,92,0.00,,OVC020,0.00,VWS V14.01,2013-03-11 23:45:00,
2013-03-11 19:50:00,41.4,39.2,30.22,South,176,0.0,0.0,92,0.00,,OVC020,0.00,VWS V14.01,2013-03-11 23:50:00,
2013-03-11 19:55:00,41.4,39.2,30.22,SSW,198,7.0,10.0,92,0.00,,OVC020,0.00,VWS V14.01,2013-03-11 23:55:00,
2013-03-11 20:00:00,41.4,39.2,30.22,SE,138,3.0,3.0,92,0.00,,OVC020,0.00,VWS V14.01,2013-03-12 00:00:00,
2013-03-11 20:05:00,41.4,39.2,30.22,ESE,109,4.0,7.0,92,0.00,,OVC020,0.00,VWS V14.01,2013-03-12 00:05:00,
2013-03-11 20:10:00,41.4,39.2,30.21,ESE,115,5.0,6.0,92,0.00,,OVC020,0.00,VWS V14.01,2013-03-12 00:10:00,
2013-03-11 20:15:00,41.2,39.1,30.21,South,184,4.0,10.0,92,0.00,,OVC020,0.00,VWS V14.01,2013-03-12 00:15:00,
2013-03-11 20:20:00,41.1,39.2,30.21,SSW,203,2.0,5.0,93,0.00,,OVC020,0.00,VWS V14.01,2013-03-12 00:20:00,
2013-03-11 20:25:00,41.1,39.2,30.21,South,173,4.0,9.0,93,0.00,,OVC020,0.00,VWS V14.01,2013-03-12 00:25:00,
2013-03-11 20:30:00,41.2,39.3,30.21,East,79,1.0,2.0,93,0.00,,OVC020,0.00,VWS V14.01,2013-03-12 00:30:00,
2013-03-11 20:35:00,41.2,39.3,30.21,South,187,2.0,7.0,93,0.00,,OVC020,0.00,VWS V14.01,2013-03-12 00:35:00,
2013-03-11 20:40:00,41.3,39.4,30.21,SE,141,2.0,5.0,93,0.00,,OVC020,0.00,VWS V14.01,2013-03-12 00:40:00,
2013-03-11 20:45:00,41.2,39.3,30.22,West,269,0.0,5.0,93,0.00,,OVC020,0.00,VWS V14.01,2013-03-12 00:45:00,
2013-03-11 20:50:00,41.1,39.2,30.21,SE,134,3.0,3.0,93,0.00,,OVC020,0.00,VWS V14.01,2013-03-12 00:50:00,
2013-03-11 20:55:00,41.2,39.3,30.21,SE,135,1.0,5.0,93,0.00,,OVC020,0.00,VWS V14.01,2013-03-12 00:55:00,
2013-03-11 21:00:00,41.1,39.2,30.21,South,184,1.0,2.0,93,0.00,,OVC020,0.00,VWS V14.01,2013-03-12 01:00:00,
2013-03-11 21:05:00,41.2,39.3,30.20,SE,127,3.0,6.0,93,0.00,,BKN020,0.00,VWS V14.01,2013-03-12 01:05:00,
2013-03-11 21:10:00,41.1,39.2,30.21,SSE,155,4.0,5.0,93,0.00,,BKN020,0.00,VWS V14.01,2013-03-12 01:10:00,
2013-03-11 21:15:00,41.0,39.1,30.21,SSW,211,5.0,6.0,93,0.00,,BKN020,0.00,VWS V14.01,2013-03-12 01:15:00,
2013-03-11 21:20:00,40.9,39.0,30.21,SE,129,3.0,3.0,93,0.00,,BKN020,0.00,VWS V14.01,2013-03-12 01:20:00,
2013-03-11 21:25:00,40.9,39.3,30.21,SE,138,1.0,5.0,94,0.00,,BKN020,0.00,VWS V14.01,2013-03-12 01:25:00,
2013-03-11 21:30:00,40.9,39.3,30.21,SE,143,4.0,4.0,94,0.00,,BKN020,0.00,VWS V14.01,2013-03-12 01:30:00,
2013-03-11 21:35:00,40.9,39.3,30.20,SE,128,3.0,5.0,94,0.00,,BKN020,0.00,VWS V14.01,2013-03-12 01:35:00,
2013-03-11 21:40:00,40.9,39.3,30.20,SSE,166,2.0,2.0,94,0.00,,BKN020,0.00,VWS V14.01,2013-03-12 01:40:00,
2013-03-11 21:45:00,40.9,39.3,30.21,SSE,153,2.0,3.0,94,0.00,,BKN020,0.00,VWS V14.01,2013-03-12 01:45:00,
2013-03-11 21:50:00,40.9,39.3,30.20,SE,129,0.0,1.0,94,0.00,,BKN020,0.00,VWS V14.01,2013-03-12 01:50:00,
2013-03-11 21:55:00,41.1,39.5,30.20,SSW,193,1.0,5.0,94,0.00,,BKN020,0.00,VWS V14.01,2013-03-12 01:55:00,
2013-03-11 22:00:00,41.2,39.6,30.20,SE,139,1.0,2.0,94,0.00,,BKN020,0.00,VWS V14.01,2013-03-12 02:00:00,
2013-03-11 22:05:00,41.2,39.6,30.20,South,172,1.0,6.0,94,0.00,,OVC020,0.00,VWS V14.01,2013-03-12 02:05:00,
2013-03-11 22:10:00,41.2,39.6,30.20,South,187,4.0,4.0,94,0.00,,OVC020,0.00,VWS V14.01,2013-03-12 02:10:00,
2013-03-11 22:15:00,41.2,39.6,30.20,South,169,2.0,8.0,94,0.00,,OVC020,0.00,VWS V14.01,2013-03-12 02:15:00,
2013-03-11 22:20:00,41.3,39.7,30.20,ESE,121,3.0,3.0,94,0.00,,OVC020,0.00,VWS V14.01,2013-03-12 02:20:00,
2013-03-11 22:25:00,41.4,39.8,30.20,ESE,108,0.0,7.0,94,0.00,,OVC020,0.00,VWS V14.01,2013-03-12 02:25:00,
2013-03-11 22:30:00,41.5,39.9,30.19,SE,125,1.0,1.0,94,0.00,,OVC020,0.00,VWS V14.01,2013-03-12 02:30:00,
2013-03-11 22:35:00,41.7,40.1,30.19,ESE,105,3.0,7.0,94,0.00,,OVC020,0.00,VWS V14.01,2013-03-12 02:35:00,
2013-03-11 22:40:00,41.7,40.1,30.20,South,184,1.0,1.0,94,0.00,,OVC020,0.00,VWS V14.01,2013-03-12 02:40:00,
2013-03-11 22:45:00,41.8,40.2,30.19,SE,145,2.0,6.0,94,0.00,,OVC020,0.00,VWS V14.01,2013-03-12 02:45:00,
2013-03-11 22:50:00,41.8,40.2,30.18,ESE,121,4.0,7.0,94,0.00,,OVC020,0.00,VWS V14.01,2013-03-12 02:50:00,
2013-03-11 22:55:00,42.0,40.4,30.18,South,191,4.0,7.0,94,0.00,,OVC020,0.00,VWS V14.01,2013-03-12 02:55:00,
2013-03-11 23:00:00,42.3,40.7,30.18,East,96,3.0,3.0,94,0.00,,OVC020,0.00,VWS V14.01,2013-03-12 03:00:00,
2013-03-11 23:05:00,42.7,41.1,30.18,SE,134,4.0,8.0,94,0.00,,OVC020,0.00,VWS V14.01,2013-03-12 03:05:00,
2013-03-11 23:10:00,42.9,41.3,30.18,South,176,3.0,3.0,94,0.00,,OVC020,0.00,VWS V14.01,2013-03-12 03:10:00,
2013-03-11 23:15:00,43.1,41.5,30.18,SW,222,3.0,7.0,94,0.00,,OVC020,0.00,VWS V14.01,2013-03-12 03:15:00,
2013-03-11 23:20:00,43.2,41.3,30.18,South,179,6.0,7.0,93,0.00,,OVC020,0.00,VWS V14.01,2013-03-12 03:20:00,
2013-03-11 23:25:00,43.2,41.3,30.19,SE,145,4.0,8.0,93,0.00,,OVC020,0.00,VWS V14.01,2013-03-12 03:25:00,
2013-03-11 23:30:00,43.1,41.2,30.19,ESE,116,4.0,4.0,93,0.00,,OVC020,0.00,VWS V14.01,2013-03-12 03:30:00,
2013-03-11 23:35:00,43.0,41.1,30.19,SSE,166,2.0,6.0,93,0.00,,OVC020,0.00,VWS V14.01,2013-03-12 03:35:00,
2013-03-11 23:40:00,42.9,41.0,30.19,SE,126,1.0,3.0,93,0.00,,OVC020,0.00,VWS V14.01,2013-03-12 03:40:00,
2013-03-11 23:45:00,42.8,40.9,30.19,SSE,158,4.0,8.0,93,0.00,,OVC020,0.00,VWS V14.01,2013-03-12 03:45:00,
2013-03-11 23:50:00,42.9,41.3,30.19,SE,131,3.0,3.0,94,0.00,,OVC020,0.00,VWS V14.01,2013-03-12 03:50:00,
2013-03-11 23:55:00,42.9,41.3,30.19,SE,125,8.0,8.0,94,0.00,,OVC020,0.00,VWS V14.01,2013-03-12 03:55:00,
2013-03-11 23:59:00,42.9,41.3,30.19,SSW,208,3.0,3.0,94,0.00,,OVC020,0.00,VWS V14.01,2013-03-12 03:59:00,